Regional Weather Roundup
Issued by NWS

Home | Current Version | Previous Version | Text Only | Print | Product List | Glossary On
Versions: 1 2 3 4 5 6 7 8 9 10 11 12 13 14 15 16 17 18 19 20 21 22 23 24 25 26 27 28
000
ASUS45 KBOI 032210
RWRID

IDAHO REGIONAL WEATHER ROUNDUP
NATIONAL WEATHER SERVICE BOISE ID
400 PM MDT TUE MAY 03 2016

NOTE: "FAIR" INDICATES FEW OR NO CLOUDS BELOW 12000 FEET
WITH NO SIGNIFICANT WEATHER AND/OR OBSTRUCTIONS TO VISIBILITY

IDZ012-014-032300-
SOUTHWEST IDAHO


CITY           SKY/WX    TMP DP  RH WIND       PRES   REMARKS
BOISE          SUNNY     78  28  16 SE9       30.07F
CALDWELL       SUNNY     80  40  23 SE15      30.05F
MOUNTAIN HOME  SUNNY     78  31  18 E12       30.08F
$$

IDZ016-017-032300-
SOUTHCENTRAL IDAHO


CITY           SKY/WX    TMP DP  RH WIND       PRES   REMARKS
BURLEY         SUNNY     74  33  22 MISG      30.14F
JEROME         SUNNY     73  33  23 E6        30.15F
TWIN FALLS     SUNNY     72  30  21 CALM      30.14F
$$

IDZ019>023-032300-
SOUTHEAST IDAHO


CITY           SKY/WX    TMP DP  RH WIND       PRES   REMARKS
IDAHO FALLS    SUNNY     71  26  18 CALM      30.19F
POCATELLO      MOSUNNY   73  32  22 W8        30.18F
REXBURG        SUNNY     71  23  16 VRB7      30.19F
$$

IDZ006-010-011-018-031-032-032300-
CENTRAL IDAHO MOUNTAINS


CITY           SKY/WX    TMP DP  RH WIND       PRES   REMARKS
MCCALL         SUNNY     69  22  16 S10       30.15F
HAILEY         SUNNY     66  36  32 SE12      30.23F
STANLEY          N/A     67  15  13 S8G16     30.22F
SALMON         SUNNY     75  30  19 NW3       30.07F
CHALLIS        SUNNY     75  12   9 NE7       30.12F
$$

IDZ002-004-006-007-026-032300-
NORTHERN IDAHO


CITY           SKY/WX    TMP DP  RH WIND       PRES   REMARKS
LEWISTON       SUNNY     84  44  24 SE5       29.97F
LOWELL           N/A     84  43  23 SE10G18   29.96F
COEUR D`ALENE  SUNNY     82  37  20 S5        29.98F
MULLAN PASS    PTSUNNY   64  29  26 SW5       30.20F
$$




USA.gov is the U.S. government's official web portal to all federal, state and local government web resources and services.